Вернуться в каталог

ONEWEB-0382

АктивенСвязьPO
NORAD 49308·PAYLOAD·🇬🇧 United Kingdom

Запущен Oct 14, 2021 с Vostochny Cosmodrome

Loading…

Ближайшие Пролёты (ближайшие 24 часа)

TLE

СвежийSource: CelesTrak SupGP

Эпоха: Sep 14, 2026, 13:29 UTC

1 49308C 21090AF  26257.56196019 -.00000414  00000+0 -10186-2 0  2570
2 49308  87.9139 256.6067 0002268  95.1346  16.4799 13.20773577    10

Отслеживайте ONEWEB-0382 в реальном времени с AllMySat

Download on the App Store